Sarasota, FL

5:31 PM EST on December 18, 2017 (GMT -0500)
Sarasota-bradenton

Weather History for KSRQ - May, 2013

Change the Weather History Date:

Tuesday, May 28, 2013

  Actual Average Record
Temperature  
Mean Temperature 82 °F 78 °F  
Max Temperature 93 °F 87 °F 98 °F (1953)
Min Temperature 71 °F 70 °F 59 °F (1942)
Degree Days  
Heating Degree Days 0 0  
Month to date heating degree days 0 0  
Since 1 July heating degree days 397 477  
Cooling Degree Days 17 14  
Month to date cooling degree days 291 313  
Year to date cooling degree days 815 710  
Growing Degree Days 31 (Base 50)    
Moisture  
Dew Point 68 °F    
Average Humidity 69    
Maximum Humidity 90    
Minimum Humidity 44    
Precipitation  
Precipitation T in 0.10 in 1.53 in (1963)
Month to date precipitation 1.46 1.89  
Year to date precipitation 7.59 13.38  
Sea Level Pressure  
Sea Level Pressure 30.06 in    
Wind  
Wind Speed 13 mph (East)    
Max Wind Speed 25 mph    
Max Gust Speed 29 mph    
Visibility 10 miles    
Events      
T = Trace of Precipitation, MM = Missing Value Source: NWS Daily Summary

Daily Weather History Graph

Daily Weather History Graph

Search for Another Location

Airport or City:

Trip Planner

Search our weather history database for the weather conditions in past years. The results will help you decide how hot, cold, wet, or windy it might be!

Date:

Astronomy

May. 28, 2013 Rise Set
Actual Time 6:36 AM EDT 8:19 PM EDT
Civil Twilight 6:10 AM EDT 8:45 PM EDT
Nautical Twilight 5:38 AM EDT 9:16 PM EDT
Astronomical Twilight 5:06 AM EDT 9:49 PM EDT
Moon 11:53 PM EDT (5/28) 10:15 AM EDT (5/28)
Length of Visible Light 14h 34m
Length of Day
13h 42m
Waning Gibbous, 83% of the Moon is Illuminated
May 28
Waning Gibbous
May 31
Last Quarter
Jun 8
New
Jun 16
First Quarter
Jun 23
Full

Hourly Weather History & Observations

Time (EDT) Temp. Heat Index Dew Point Humidity Pressure Visibility Wind Dir Wind Speed Gust Speed Precip Events Conditions
12:53 AM 73.9 °F - 66.9 °F 79% 30.12 in 10.0 mi East 10.4 mph - N/A   Clear
1:53 AM 73.0 °F - 66.9 °F 81% 30.10 in 10.0 mi East 9.2 mph - N/A   Clear
2:53 AM 72.0 °F - 66.9 °F 84% 30.08 in 10.0 mi East 10.4 mph - N/A   Clear
3:53 AM 71.1 °F - 66.9 °F 87% 30.06 in 10.0 mi East 10.4 mph - N/A   Clear
4:53 AM 71.1 °F - 66.9 °F 87% 30.05 in 10.0 mi ENE 9.2 mph - N/A   Clear
5:53 AM 71.1 °F - 68.0 °F 90% 30.06 in 10.0 mi East 10.4 mph - N/A   Clear
6:53 AM 71.1 °F - 68.0 °F 90% 30.07 in 10.0 mi ENE 10.4 mph - N/A   Clear
7:53 AM 73.9 °F - 68.0 °F 82% 30.08 in 10.0 mi ENE 11.5 mph - N/A   Clear
8:53 AM 79.0 °F - 69.1 °F 72% 30.09 in 10.0 mi East 15.0 mph - N/A   Clear
9:53 AM 82.9 °F 86.5 °F 69.1 °F 63% 30.09 in 10.0 mi East 15.0 mph 20.7 mph N/A   Scattered Clouds
10:31 AM 84.2 °F 88.4 °F 69.8 °F 62% 30.08 in 10.0 mi East 16.1 mph 23.0 mph N/A   Mostly Cloudy
10:53 AM 86.0 °F 90.1 °F 69.1 °F 57% 30.09 in 10.0 mi ESE 15.0 mph 24.2 mph N/A   Mostly Cloudy
11:00 AM 86.0 °F 90.4 °F 69.8 °F 58% 30.09 in 10.0 mi ESE 16.1 mph 24.2 mph N/A   Scattered Clouds
11:53 AM 88.0 °F 92.1 °F 69.1 °F 53% 30.08 in 10.0 mi ESE 16.1 mph - N/A   Mostly Cloudy
12:53 PM 91.0 °F 95.2 °F 68.0 °F 47% 30.06 in 10.0 mi East 16.1 mph 24.2 mph 0.00 in   Scattered Clouds
1:53 PM 91.0 °F 94.3 °F 66.9 °F 45% 30.04 in 10.0 mi East 17.3 mph 21.9 mph N/A   Mostly Cloudy
2:53 PM 90.0 °F 95.4 °F 70.0 °F 52% 30.04 in 10.0 mi SE 19.6 mph 24.2 mph 0.00 in   Scattered Clouds
3:53 PM 91.0 °F 95.2 °F 68.0 °F 47% 30.01 in 10.0 mi ESE 20.7 mph 26.5 mph N/A   Partly Cloudy
4:53 PM 82.9 °F 85.8 °F 68.0 °F 60% 30.03 in 10.0 mi NE 17.3 mph 24.2 mph N/A   Mostly Cloudy
5:53 PM 79.0 °F - 71.1 °F 77% 30.03 in 10.0 mi NNE 9.2 mph - N/A   Partly Cloudy
6:53 PM 87.1 °F 89.9 °F 66.9 °F 51% 30.00 in 10.0 mi ESE 20.7 mph 25.3 mph N/A   Clear
7:53 PM 82.9 °F 85.4 °F 66.9 °F 58% 30.04 in 10.0 mi East 15.0 mph - N/A   Mostly Cloudy
8:53 PM 79.0 °F - 68.0 °F 69% 30.05 in 10.0 mi East 12.7 mph - 0.00 in   Clear
9:53 PM 77.0 °F - 69.1 °F 76% 30.07 in 10.0 mi East 8.1 mph - N/A   Clear
10:53 PM 75.9 °F - 69.1 °F 79% 30.08 in 10.0 mi East 10.4 mph - N/A   Clear
11:53 PM 73.9 °F - 69.1 °F 85% 30.07 in 10.0 mi East 8.1 mph - N/A   Clear